| time (UTC) | temp C | wind direction | speed KPH | gust KPH | rain 1hr cm | rain 24hr cm | rain mn cm | humidity % | barometer mb |
| 20260510164025 | 20 | 83 | 0.0 | 0.0 | 0.00 | 0.00 | 0.00 | 55 | 1009.9 |
| 20260510163047 | 20 | 101 | 0.0 | 3.2 | 0.00 | 0.00 | 0.00 | 53 | 1009.9 |
| 20260510162112 | 21 | 95 | 0.0 | 3.2 | 0.00 | 0.00 | 0.00 | 54 | 1010.0 |
| 20260510161043 | 21 | 91 | 0.0 | 3.2 | 0.00 | 0.00 | 0.00 | 51 | 1010.3 |
| 20260510160029 | 21 | 104 | 0.0 | 4.8 | 0.00 | 0.00 | 0.00 | 50 | 1010.6 |
| 20260510155032 | 21 | 130 | 0.0 | 0.0 | 0.00 | 0.00 | 0.00 | 50 | 1010.6 |
| 20260510154023 | 21 | 179 | 0.0 | 4.8 | 0.00 | 0.00 | 0.00 | 52 | 1010.6 |
| 20260510153026 | 21 | 87 | 0.0 | 1.6 | 0.00 | 0.00 | 0.00 | 51 | 1010.6 |
| 20260510152027 | 21 | 88 | 1.6 | 6.4 | 0.00 | 0.00 | 0.00 | 51 | 1010.6 |
| 20260510151032 | 20 | 91 | 0.0 | 1.6 | 0.00 | 0.00 | 0.00 | 52 | 1010.6 |
| 20260510150033 | 22 | 114 | 1.6 | 4.8 | 0.00 | 0.00 | 0.00 | 50 | 1011.0 |
| 20260510145028 | 24 | 254 | 0.0 | 1.6 | 0.00 | 0.00 | 0.00 | 46 | 1011.2 |
| 20260510144030 | 24 | 282 | 0.0 | 8.0 | 0.00 | 0.00 | 0.00 | 44 | 1011.2 |
| 20260510143024 | 25 | 146 | 0.0 | 4.8 | 0.00 | 0.00 | 0.00 | 45 | 1011.5 |
| 20260510142026 | 23 | 153 | 0.0 | 4.8 | 0.00 | 0.00 | 0.00 | 45 | 1011.5 |
| 20260510141104 | 23 | 130 | 3.2 | 6.4 | 0.00 | 0.00 | 0.00 | 45 | 1011.5 |
| 20260510140130 | 22 | 219 | 1.6 | 6.4 | 0.00 | 0.00 | 0.00 | 46 | 1012.1 |
| 20260510135037 | 23 | 120 | 1.6 | 6.4 | 0.00 | 0.00 | 0.00 | 48 | 1012.2 |
| 20260510134026 | 24 | 222 | 0.0 | 3.2 | 0.00 | 0.00 | 0.00 | 44 | 1012.2 |
| 20260510133024 | 23 | 162 | 1.6 | 6.4 | 0.00 | 0.00 | 0.00 | 45 | 1012.5 |
| 20260510132024 | 23 | 275 | 1.6 | 4.8 | 0.00 | 0.00 | 0.00 | 45 | 1012.5 |
| 20260510131026 | 23 | 171 | 3.2 | 8.0 | 0.00 | 0.00 | 0.00 | 46 | 1012.5 |
| 20260510130029 | 22 | 243 | 1.6 | 6.4 | 0.00 | 0.00 | 0.00 | 45 | 1013.1 |
| 20260510125029 | 22 | 72 | 1.6 | 6.4 | 0.00 | 0.00 | 0.00 | 48 | 1013.1 |
| 20260510124023 | 22 | 101 | 1.6 | 6.4 | 0.00 | 0.00 | 0.00 | 46 | 1012.9 |
| 20260510123024 | 22 | 294 | 1.6 | 6.4 | 0.00 | 0.00 | 0.00 | 50 | 1013.1 |
| 20260510122031 | 21 | 261 | 1.6 | 4.8 | 0.00 | 0.00 | 0.00 | 50 | 1013.1 |
| 20260510121032 | 21 | 95 | 3.2 | 8.0 | 0.00 | 0.00 | 0.00 | 51 | 1013.1 |
| 20260510120029 | 21 | 242 | 1.6 | 4.8 | 0.00 | 0.00 | 0.00 | 52 | 1013.8 |
| 20260510115029 | 21 | 278 | 1.6 | 6.4 | 0.00 | 0.00 | 0.00 | 52 | 1013.8 |
| 20260510114105 | 21 | 256 | 0.0 | 3.2 | 0.00 | 0.00 | 0.00 | 51 | 1013.7 |
| 20260510113031 | 21 | 258 | 3.2 | 8.0 | 0.00 | 0.00 | 0.00 | 51 | 1014.1 |
| 20260510112044 | 21 | 326 | 0.0 | 1.6 | 0.00 | 0.00 | 0.00 | 52 | 1014.1 |
| 20260510111045 | 20 | 267 | 0.0 | 4.8 | 0.00 | 0.00 | 0.00 | 51 | 1014.1 |
| 20260510110027 | 20 | 252 | 3.2 | 8.0 | 0.00 | 0.00 | 0.00 | 52 | 1014.1 |
| 20260510105023 | 20 | 235 | 1.6 | 8.0 | 0.00 | 0.00 | 0.00 | 51 | 1014.1 |
| 20260510104043 | 19 | 261 | 3.2 | 8.0 | 0.00 | 0.00 | 0.00 | 53 | 1014.4 |
| 20260510103024 | 19 | 267 | 3.2 | 8.0 | 0.00 | 0.00 | 0.00 | 53 | 1014.4 |
| 20260510102023 | 18 | 245 | 3.2 | 6.4 | 0.00 | 0.00 | 0.00 | 52 | 1014.4 |
| 20260510101046 | 18 | 95 | 1.6 | 6.4 | 0.00 | 0.00 | 0.00 | 54 | 1015.1 |
| 20260510100549 | 18 | 121 | 0.0 | 4.8 | 0.00 | 0.00 | 0.00 | 52 | 1015.1 |
| 20260510095055 | 18 | 241 | 0.0 | 4.8 | 0.00 | 0.00 | 0.00 | 52 | 1015.1 |
| 20260510094020 | 17 | 169 | 0.0 | 4.8 | 0.00 | 0.00 | 0.00 | 52 | 1015.4 |
| 20260510093051 | 17 | 107 | 1.6 | 4.8 | 0.00 | 0.00 | 0.00 | 55 | 1015.4 |
| 20260510092024 | 17 | 84 | 1.6 | 4.8 | 0.00 | 0.00 | 0.00 | 56 | 1015.4 |
| 20260510091052 | 17 | 113 | 1.6 | 4.8 | 0.00 | 0.00 | 0.00 | 56 | 1015.4 |
| 20260510090023 | 17 | 86 | 1.6 | 4.8 | 0.00 | 0.00 | 0.00 | 58 | 1016.1 |
| 20260510085113 | 16 | 71 | 1.6 | 3.2 | 0.00 | 0.00 | 0.00 | 60 | 1016.0 |
| 20260510084020 | 15 | 85 | 1.6 | 6.4 | 0.00 | 0.00 | 0.00 | 63 | 1016.0 |
| 20260510083105 | 16 | 75 | 1.6 | 9.7 | 0.00 | 0.00 | 0.00 | 59 | 1016.1 |
| 20260510082102 | 16 | 93 | 0.0 | 1.6 | 0.00 | 0.00 | 0.00 | 62 | 1016.1 |
| 20260510081028 | 15 | 97 | 1.6 | 4.8 | 0.00 | 0.00 | 0.00 | 65 | 1016.4 |
| 20260510080046 | 15 | 87 | 3.2 | 8.0 | 0.00 | 0.00 | 0.00 | 66 | 1016.7 |
| 20260510075020 | 15 | 69 | 3.2 | 6.4 | 0.00 | 0.00 | 0.00 | 65 | 1016.7 |
| 20260510074034 | 13 | 126 | 3.2 | 8.0 | 0.00 | 0.00 | 0.00 | 68 | 1016.3 |
| 20260510073040 | 15 | 89 | 4.8 | 9.7 | 0.00 | 0.00 | 0.00 | 67 | 1016.8 |
| 20260510072027 | 15 | 78 | 3.2 | 6.4 | 0.00 | 0.00 | 0.00 | 68 | 1016.8 |
| 20260510071024 | 13 | 75 | 3.2 | 8.0 | 0.00 | 0.00 | 0.00 | 71 | 1016.7 |
| 20260510070024 | 13 | 101 | 1.6 | 6.4 | 0.00 | 0.00 | 0.00 | 71 | 1016.7 |
| 20260510065020 | 13 | 75 | 4.8 | 9.7 | 0.00 | 0.00 | 0.00 | 71 | 1016.7 |
| 20260510064030 | 12 | 80 | 1.6 | 6.4 | 0.00 | 0.00 | 0.00 | 72 | 1016.7 |
| 20260510063047 | 12 | 102 | 3.2 | 11.3 | 0.00 | 0.00 | 0.00 | 73 | 1016.8 |
| 20260510062019 | 12 | 75 | 3.2 | 6.4 | 0.00 | 0.00 | 0.00 | 73 | 1016.8 |
| 20260510061041 | 12 | 95 | 1.6 | 4.8 | 0.00 | 0.00 | 0.00 | 72 | 1016.8 |
| 20260510060024 | 13 | 99 | 1.6 | 6.4 | 0.00 | 0.00 | 0.00 | 72 | 1016.8 |
| 20260510055038 | 12 | 97 | 0.0 | 3.2 | 0.00 | 0.00 | 0.00 | 74 | 1016.8 |
| 20260510054027 | 11 | 86 | 0.0 | 1.6 | 0.00 | 0.00 | 0.00 | 76 | 1016.7 |
| 20260510053021 | 11 | 93 | 0.0 | 1.6 | 0.00 | 0.00 | 0.00 | 77 | 1017.1 |
| 20260510052023 | 10 | 80 | 0.0 | 0.0 | 0.00 | 0.00 | 0.00 | 83 | 1017.0 |
| 20260510051020 | 9 | 102 | 1.6 | 3.2 | 0.00 | 0.00 | 0.00 | 91 | 1017.3 |
| 20260510050022 | 7 | 0.0 | 0.0 | 0.00 | 0.00 | 0.00 | 96 | 1017.2 | |
| 20260510045019 | 5 | 0.0 | 0.0 | 0.00 | 0.00 | 0.00 | 96 | 1017.0 | |
| 20260510044020 | 4 | 246 | 0.0 | 1.6 | 0.00 | 0.00 | 0.00 | 97 | 1017.0 |
| 20260510043022 | 3 | 0.0 | 0.0 | 0.00 | 0.00 | 0.00 | 97 | 1016.7 | |
| 20260510042039 | 3 | 0.0 | 0.0 | 0.00 | 0.00 | 0.00 | 96 | 1016.6 | |
| 20260510041020 | 3 | 0.0 | 0.0 | 0.00 | 0.00 | 0.00 | 96 | 1016.6 | |
| 20260510040045 | 3 | 0.0 | 0.0 | 0.00 | 0.00 | 0.00 | 96 | 1016.6 | |
| 20260510035019 | 2 | 0.0 | 0.0 | 0.00 | 0.00 | 0.00 | 96 | 1016.6 | |
| 20260510034113 | 2 | 0.0 | 0.0 | 0.00 | 0.00 | 0.00 | 96 | 1016.6 | |
| 20260510033026 | 2 | 0.0 | 0.0 | 0.00 | 0.00 | 0.00 | 95 | 1016.6 | |
| 20260510032024 | 2 | 0.0 | 0.0 | 0.00 | 0.00 | 0.00 | 95 | 1016.6 | |
| 20260510031029 | 2 | 0.0 | 0.0 | 0.00 | 0.00 | 0.00 | 95 | 1016.6 | |
| 20260510030022 | 2 | 0.0 | 0.0 | 0.00 | 0.00 | 0.00 | 95 | 1016.9 | |
| 20260510025023 | 2 | 0.0 | 0.0 | 0.00 | 0.00 | 0.00 | 95 | 1017.0 | |
| 20260510024032 | 2 | 0.0 | 0.0 | 0.00 | 0.00 | 0.00 | 95 | 1016.7 | |
| 20260510023043 | 3 | 0.0 | 0.0 | 0.00 | 0.00 | 0.00 | 95 | 1017.0 | |
| 20260510022102 | 3 | 0.0 | 0.0 | 0.00 | 0.00 | 0.00 | 95 | 1017.0 | |
| 20260510021030 | 3 | 0.0 | 0.0 | 0.00 | 0.00 | 0.00 | 94 | 1017.0 | |
| 20260510020052 | 3 | 0.0 | 0.0 | 0.00 | 0.00 | 0.00 | 94 | 1017.1 | |
| 20260510015109 | 3 | 0.0 | 0.0 | 0.00 | 0.00 | 0.00 | 94 | 1017.1 | |
| 20260510014019 | 3 | 0.0 | 0.0 | 0.00 | 0.00 | 0.00 | 94 | 1017.1 | |
| 20260510013020 | 3 | 0.0 | 0.0 | 0.00 | 0.00 | 0.00 | 93 | 1017.4 | |
| 20260510012022 | 3 | 0.0 | 0.0 | 0.00 | 0.00 | 0.00 | 93 | 1017.4 | |
| 20260510011029 | 3 | 0.0 | 0.0 | 0.00 | 0.00 | 0.00 | 93 | 1017.8 | |
| 20260510010032 | 4 | 0.0 | 0.0 | 0.00 | 0.00 | 0.00 | 93 | 1017.4 | |
| 20260510005030 | 4 | 0.0 | 0.0 | 0.00 | 0.00 | 0.00 | 92 | 1017.5 | |
| 20260510004030 | 4 | 0.0 | 0.0 | 0.00 | 0.00 | 0.00 | 92 | 1017.5 | |
| 20260510003028 | 5 | 0.0 | 0.0 | 0.00 | 0.00 | 0.00 | 92 | 1017.5 | |
| 20260510002031 | 5 | 0.0 | 0.0 | 0.00 | 0.00 | 0.00 | 92 | 1017.6 | |
| 20260510001029 | 5 | 0.0 | 0.0 | 0.00 | 0.00 | 0.00 | 91 | 1017.9 | |
| 20260510000027 | 4 | 0.0 | 0.0 | 0.00 | 0.00 | 0.00 | 91 | 1018.2 | |
| 20260509235039 | 4 | 0.0 | 0.0 | 0.00 | 0.00 | 0.00 | 90 | 1018.2 | |
| 20260509234032 | 4 | 0.0 | 0.0 | 0.00 | 0.00 | 0.00 | 90 | 1018.5 | |
| 20260509233049 | 5 | 0.0 | 0.0 | 0.00 | 0.00 | 0.00 | 90 | 1018.2 | |
| 20260509232023 | 5 | 0.0 | 0.0 | 0.00 | 0.00 | 0.00 | 89 | 1018.2 | |
| 20260509231020 | 5 | 0.0 | 0.0 | 0.00 | 0.00 | 0.00 | 89 | 1018.6 | |
| 20260509230027 | 5 | 0.0 | 0.0 | 0.00 | 0.00 | 0.00 | 88 | 1018.3 | |
| 20260509225042 | 6 | 0.0 | 0.0 | 0.00 | 0.00 | 0.00 | 87 | 1018.3 | |
| 20260509224023 | 6 | 0.0 | 0.0 | 0.00 | 0.00 | 0.00 | 87 | 1018.7 | |
| 20260509223029 | 6 | 0.0 | 0.0 | 0.00 | 0.00 | 0.00 | 86 | 1018.6 | |
| 20260509222029 | 6 | 0.0 | 0.0 | 0.00 | 0.00 | 0.00 | 85 | 1018.6 | |
| 20260509221019 | 6 | 0.0 | 0.0 | 0.00 | 0.00 | 0.00 | 84 | 1018.6 | |
| 20260509220521 | 7 | 0.0 | 0.0 | 0.00 | 0.00 | 0.00 | 83 | 1018.6 | |
| 20260509215050 | 7 | 0.0 | 0.0 | 0.00 | 0.00 | 0.00 | 83 | 1018.6 | |
| 20260509214019 | 7 | 0.0 | 0.0 | 0.00 | 0.00 | 0.00 | 82 | 1018.6 | |
| 20260509213020 | 7 | 71 | 0.0 | 0.0 | 0.00 | 0.00 | 0.00 | 82 | 1018.6 |
| 20260509212019 | 8 | 0.0 | 0.0 | 0.00 | 0.00 | 0.00 | 81 | 1018.6 | |
| 20260509211026 | 8 | 0.0 | 0.0 | 0.00 | 0.00 | 0.00 | 81 | 1019.0 | |
| 20260509210025 | 8 | 0.0 | 0.0 | 0.00 | 0.00 | 0.00 | 80 | 1019.0 | |
| 20260509205026 | 8 | 0.0 | 0.0 | 0.00 | 0.00 | 0.00 | 79 | 1019.0 | |
| 20260509204020 | 8 | 0.0 | 0.0 | 0.00 | 0.00 | 0.00 | 77 | 1018.7 | |
| 20260509203025 | 8 | 0.0 | 0.0 | 0.00 | 0.00 | 0.00 | 76 | 1018.7 | |
| 20260509202021 | 9 | 0.0 | 0.0 | 0.00 | 0.00 | 0.00 | 75 | 1018.7 | |
| 20260509201025 | 9 | 114 | 0.0 | 3.2 | 0.00 | 0.00 | 0.00 | 74 | 1018.7 |
| 20260509200025 | 10 | 64 | 0.0 | 3.2 | 0.00 | 0.00 | 0.00 | 73 | 1018.8 |
| 20260509195048 | 10 | 66 | 0.0 | 0.0 | 0.00 | 0.00 | 0.00 | 73 | 1018.8 |
| 20260509194029 | 10 | 57 | 0.0 | 0.0 | 0.00 | 0.00 | 0.00 | 72 | 1018.8 |
| 20260509193042 | 10 | 79 | 0.0 | 0.0 | 0.00 | 0.00 | 0.00 | 72 | 1019.0 |
| 20260509192020 | 10 | 107 | 0.0 | 0.0 | 0.00 | 0.00 | 0.00 | 71 | 1019.0 |
| 20260509191024 | 10 | 69 | 0.0 | 0.0 | 0.00 | 0.00 | 0.00 | 70 | 1018.7 |
| 20260509190054 | 11 | 0.0 | 0.0 | 0.00 | 0.00 | 0.00 | 70 | 1018.4 | |
| 20260509185041 | 11 | 70 | 0.0 | 0.0 | 0.00 | 0.00 | 0.00 | 69 | 1018.4 |
| 20260509184036 | 11 | 76 | 0.0 | 1.6 | 0.00 | 0.00 | 0.00 | 69 | 1018.4 |
| 20260509183022 | 11 | 71 | 1.6 | 3.2 | 0.00 | 0.00 | 0.00 | 68 | 1018.7 |
| 20260509182023 | 12 | 62 | 0.0 | 1.6 | 0.00 | 0.00 | 0.00 | 67 | 1018.7 |
| 20260509181023 | 12 | 59 | 0.0 | 1.6 | 0.00 | 0.00 | 0.00 | 66 | 1018.7 |
| 20260509180032 | 12 | 68 | 1.6 | 4.8 | 0.00 | 0.00 | 0.00 | 65 | 1018.4 |
| 20260509175025 | 13 | 63 | 3.2 | 4.8 | 0.00 | 0.00 | 0.00 | 64 | 1018.4 |
| 20260509174022 | 13 | 82 | 3.2 | 6.4 | 0.00 | 0.00 | 0.00 | 63 | 1018.4 |
| 20260509173044 | 13 | 56 | 4.8 | 8.0 | 0.00 | 0.00 | 0.00 | 63 | 1018.3 |
| 20260509172028 | 13 | 71 | 4.8 | 11.3 | 0.00 | 0.00 | 0.00 | 62 | 1018.3 |
| 20260509171028 | 13 | 88 | 4.8 | 14.5 | 0.00 | 0.00 | 0.00 | 62 | 1018.3 |
| 20260509170109 | 13 | 62 | 4.8 | 6.4 | 0.00 | 0.00 | 0.00 | 62 | 1017.9 |
| 20260509165035 | 13 | 75 | 3.2 | 6.4 | 0.00 | 0.00 | 0.00 | 62 | 1017.8 |